Weather History for Richmond, VA

Change the Weather History Date:

Wednesday, April 24, 2013

  Actual Average Record
Temperature  
Mean Temperature 62 °F 61 °F  
Max Temperature 79 °F 73 °F 94 °F (1925)
Min Temperature 45 °F 49 °F 30 °F (1930)
Degree Days  
Heating Degree Days 3 6  
Month to date heating degree days 177 209  
Since 1 July heating degree days 3569 3661  
Cooling Degree Days 0 2  
Month to date cooling degree days 65 26  
Year to date cooling degree days 66 32  
Growing Degree Days 12 (Base 50)    
Moisture  
Dew Point 50 °F    
Average Humidity 70    
Maximum Humidity 100    
Minimum Humidity 39    
Precipitation  
Precipitation 0.00 in 0.10 in 2.15 in (1987)
Month to date precipitation 1.87 2.62  
Year to date precipitation 15.37 12.46  
Snow  
Snow 0.00 in 0.00 in 0.00 in (2002)
Month to date snowfall T 0.1  
Since 1 July snowfall 8.6 10.3  
Snow Depth 0.00 in    
Sea Level Pressure  
Sea Level Pressure 30.05 in    
Wind  
Wind Speed 12 mph (South)    
Max Wind Speed 25 mph    
Max Gust Speed 32 mph    
Visibility 8 miles    
Events      
T = Trace of Precipitation, MM = Missing Value Source: NWS Daily Summary

Daily Weather History Graph

Daily Weather History Graph

Search for Another Location

Airport:

Trip Planner

Search our weather history database for the weather conditions in past years. The results will help you decide how hot, cold, wet, or windy it might be!

Date:

Astronomy

Apr. 24, 2013 Rise Set
Actual Time 6:22 AM EDT 7:53 PM EDT
Civil Twilight 5:54 AM EDT 8:20 PM EDT
Nautical Twilight 5:21 AM EDT 8:54 PM EDT
Astronomical Twilight 4:46 AM EDT 9:29 PM EDT
Moon 6:54 PM EDT (4/24) 5:23 AM EDT (4/24)
Length of Visible Light 14h 26m
Length of Day
13h 30m
Waxing Gibbous, 98% of the Moon is Illuminated
Apr 24
Waxing Gibbous
Apr 25
Full
May 2
Last Quarter
May 9
New
May 18
First Quarter

Hourly Weather History & Observations

Time (EDT) Temp. Windchill Dew Point Humidity Pressure Visibility Wind Dir Wind Speed Gust Speed Precip Events Conditions
12:54 AM 46.0 °F 43.9 °F 44.1 °F 93% 30.14 in 9.0 mi SE 4.6 mph - N/A   Partly Cloudy
1:54 AM 46.9 °F - 45.0 °F 93% 30.15 in 8.0 mi South 5.8 mph - N/A   Partly Cloudy
2:38 AM 46.4 °F 45.2 °F 44.6 °F 93% 30.12 in 7.0 mi South 3.5 mph - N/A   Partly Cloudy
2:54 AM 46.0 °F 44.8 °F 45.0 °F 96% 30.13 in 6.0 mi SSE 3.5 mph - N/A   Partly Cloudy
3:54 AM 46.0 °F 44.8 °F 45.0 °F 96% 30.13 in 6.0 mi SSE 3.5 mph - N/A   Partly Cloudy
4:54 AM 45.0 °F 42.6 °F 44.1 °F 97% 30.12 in 6.0 mi SE 4.6 mph - N/A   Scattered Clouds
5:54 AM 48.0 °F - 46.0 °F 93% 30.12 in 4.0 mi SSE 5.8 mph - N/A   Partly Cloudy
6:36 AM 48.2 °F - 46.4 °F 93% 30.10 in 3.0 mi South 6.9 mph - N/A   Scattered Clouds
6:54 AM 48.0 °F - 46.9 °F 96% 30.12 in 2.5 mi South 5.8 mph - N/A   Scattered Clouds
7:24 AM 48.2 °F - 48.2 °F 100% 30.11 in 2.0 mi South 8.1 mph - N/A   Mostly Cloudy
7:54 AM 50.0 °F - 48.9 °F 96% 30.13 in 3.0 mi South 6.9 mph - N/A   Mostly Cloudy
8:36 AM 53.6 °F - 51.8 °F 94% 30.11 in 6.0 mi South 9.2 mph - N/A   Scattered Clouds
8:54 AM 55.0 °F - 51.1 °F 86% 30.12 in 8.0 mi South 10.4 mph - N/A   Scattered Clouds
9:54 AM 60.1 °F - 52.0 °F 75% 30.11 in 10.0 mi South 13.8 mph - N/A   Scattered Clouds
10:54 AM 64.9 °F - 53.1 °F 65% 30.08 in 10.0 mi South 13.8 mph - N/A   Scattered Clouds
11:54 AM 69.1 °F - 55.0 °F 61% 30.05 in 10.0 mi South 12.7 mph 21.9 mph N/A   Scattered Clouds
12:54 PM 73.0 °F - 55.0 °F 53% 30.01 in 10.0 mi South 16.1 mph 25.3 mph N/A   Scattered Clouds
1:54 PM 75.0 °F - 53.1 °F 46% 29.99 in 10.0 mi South 17.3 mph 28.8 mph N/A   Mostly Cloudy
2:54 PM 78.1 °F - 53.1 °F 42% 29.97 in 10.0 mi South 19.6 mph 29.9 mph N/A   Mostly Cloudy
3:54 PM 77.0 °F - 51.1 °F 40% 29.95 in 10.0 mi SSW 21.9 mph 28.8 mph N/A   Mostly Cloudy
4:54 PM 77.0 °F - 50.0 °F 39% 29.94 in 10.0 mi SW 17.3 mph 28.8 mph N/A   Overcast
5:54 PM 75.0 °F - 52.0 °F 44% 29.92 in 10.0 mi SSW 16.1 mph 27.6 mph N/A   Mostly Cloudy
6:54 PM 73.9 °F - 51.1 °F 45% 29.91 in 10.0 mi SSW 20.7 mph 25.3 mph N/A   Overcast
7:54 PM 72.0 °F - 52.0 °F 49% 29.93 in 10.0 mi SSW 15.0 mph - N/A   Overcast
8:54 PM 71.1 °F - 53.1 °F 53% 29.95 in 10.0 mi SSW 11.5 mph - N/A   Mostly Cloudy
9:54 PM 68.0 °F - 53.1 °F 59% 29.97 in 10.0 mi SSW 10.4 mph - N/A   Scattered Clouds
10:54 PM 64.9 °F - 54.0 °F 68% 29.97 in 10.0 mi SSW 9.2 mph - N/A   Mostly Cloudy
11:54 PM 64.9 °F - 54.0 °F 68% 29.97 in 10.0 mi SSW 9.2 mph - N/A   Scattered Clouds